Back to catalog

STARLINK-4482

AliveCommunicationsVLEO
NORAD 53530·PAYLOAD·🇺🇸 United States

Launched Aug 19, 2022 from Cape Canaveral Space Force Station

Loading…

Next Passes (next 24 hours)

TLE

FreshSource: CelesTrak SupGP

Epoch: Sep 14, 2026, 22:24 UTC

1 53530C 22101D   26257.93381944  .00022901  00000+0  14364-2 0  2575
2 53530  53.1595 304.1635 0001087  82.4570  88.6352 15.08817907    19

Track STARLINK-4482 in real time with AllMySat

Download on the App Store